| time (UTC) | temp C | wind direction | speed KPH | gust KPH | rain 1hr cm | rain 24hr cm | rain mn cm | humidity % | barometer mb |
| 20260507185935 | 17 | 301 | 4.8 | 9.7 | 0.00 | 0.00 | 0.00 | 73 | 1028.7 |
| 20260507185436 | 16 | 269 | 4.8 | 12.9 | 0.00 | 0.00 | 0.00 | 71 | 1028.7 |
| 20260507184930 | 17 | 294 | 4.8 | 12.9 | 0.00 | 0.00 | 0.00 | 69 | 1028.8 |
| 20260507184429 | 17 | 17 | 3.2 | 12.9 | 0.00 | 0.00 | 0.00 | 69 | 1028.8 |
| 20260507183929 | 17 | 331 | 3.2 | 12.9 | 0.00 | 0.00 | 0.00 | 69 | 1028.9 |
| 20260507183431 | 17 | 341 | 3.2 | 9.7 | 0.00 | 0.00 | 0.00 | 71 | 1028.9 |
| 20260507182929 | 17 | 245 | 3.2 | 11.3 | 0.00 | 0.00 | 0.00 | 71 | 1028.9 |
| 20260507182428 | 17 | 44 | 3.2 | 11.3 | 0.00 | 0.00 | 0.00 | 72 | 1029.0 |
| 20260507181923 | 17 | 91 | 3.2 | 8.0 | 0.00 | 0.00 | 0.00 | 72 | 1028.9 |
| 20260507181423 | 16 | 59 | 3.2 | 8.0 | 0.00 | 0.00 | 0.00 | 72 | 1028.8 |
| 20260507180922 | 16 | 117 | 3.2 | 14.5 | 0.00 | 0.00 | 0.00 | 72 | 1029.1 |
| 20260507180423 | 16 | 342 | 4.8 | 14.5 | 0.00 | 0.00 | 0.00 | 71 | 1028.8 |
| 20260507175922 | 16 | 74 | 3.2 | 11.3 | 0.00 | 0.00 | 0.00 | 74 | 1028.8 |
| 20260507175424 | 16 | 42 | 3.2 | 12.9 | 0.00 | 0.00 | 0.00 | 72 | 1029.0 |
| 20260507174921 | 16 | 46 | 3.2 | 12.9 | 0.00 | 0.00 | 0.00 | 73 | 1029.0 |
| 20260507174418 | 16 | 36 | 3.2 | 12.9 | 0.00 | 0.00 | 0.00 | 73 | 1029.0 |
| 20260507173916 | 16 | 26 | 4.8 | 12.9 | 0.00 | 0.00 | 0.00 | 72 | 1029.0 |
| 20260507173417 | 16 | 321 | 3.2 | 9.7 | 0.00 | 0.00 | 0.00 | 71 | 1028.9 |
| 20260507172917 | 16 | 292 | 3.2 | 12.9 | 0.00 | 0.00 | 0.00 | 72 | 1028.9 |
| 20260507172417 | 16 | 26 | 3.2 | 12.9 | 0.00 | 0.00 | 0.00 | 72 | 1028.9 |
| 20260507171915 | 16 | 0 | 3.2 | 11.3 | 0.00 | 0.00 | 0.00 | 73 | 1029.1 |
| 20260507171415 | 16 | 9 | 3.2 | 11.3 | 0.00 | 0.00 | 0.00 | 72 | 1029.0 |
| 20260507170916 | 16 | 53 | 3.2 | 9.7 | 0.00 | 0.00 | 0.00 | 73 | 1029.0 |
| 20260507170413 | 16 | 39 | 3.2 | 9.7 | 0.00 | 0.00 | 0.00 | 73 | 1029.0 |
| 20260507165911 | 16 | 34 | 3.2 | 11.3 | 0.00 | 0.00 | 0.00 | 73 | 1029.1 |
| 20260507165410 | 16 | 321 | 3.2 | 11.3 | 0.00 | 0.00 | 0.00 | 73 | 1029.1 |
| 20260507164905 | 15 | 88 | 3.2 | 11.3 | 0.00 | 0.00 | 0.00 | 75 | 1029.0 |
| 20260507164405 | 15 | 61 | 3.2 | 9.7 | 0.00 | 0.00 | 0.00 | 75 | 1029.0 |
| 20260507163904 | 15 | 69 | 3.2 | 8.0 | 0.00 | 0.00 | 0.00 | 76 | 1029.0 |
| 20260507163405 | 15 | 266 | 3.2 | 6.4 | 0.00 | 0.00 | 0.00 | 76 | 1029.0 |
| 20260507162905 | 15 | 35 | 3.2 | 6.4 | 0.00 | 0.00 | 0.00 | 76 | 1029.0 |
| 20260507162405 | 14 | 80 | 1.6 | 6.4 | 0.00 | 0.00 | 0.00 | 77 | 1029.1 |
| 20260507161900 | 14 | 298 | 3.2 | 9.7 | 0.00 | 0.00 | 0.00 | 78 | 1029.1 |
| 20260507161357 | 14 | 24 | 3.2 | 9.7 | 0.00 | 0.00 | 0.00 | 78 | 1029.0 |
| 20260507160855 | 13 | 51 | 3.2 | 8.0 | 0.00 | 0.00 | 0.00 | 78 | 1029.1 |
| 20260507160352 | 13 | 19 | 1.6 | 6.4 | 0.00 | 0.00 | 0.00 | 78 | 1029.2 |
| 20260507155854 | 13 | 47 | 1.6 | 8.0 | 0.00 | 0.00 | 0.00 | 78 | 1029.2 |
| 20260507155350 | 13 | 82 | 3.2 | 8.0 | 0.00 | 0.00 | 0.00 | 79 | 1029.2 |
| 20260507154850 | 13 | 44 | 3.2 | 6.4 | 0.00 | 0.00 | 0.00 | 78 | 1029.2 |
| 20260507154349 | 13 | 11 | 1.6 | 6.4 | 0.00 | 0.00 | 0.00 | 78 | 1029.2 |
| 20260507153942 | 13 | 26 | 1.6 | 9.7 | 0.00 | 0.00 | 0.00 | 79 | 1029.2 |
| 20260507153849 | 13 | 26 | 1.6 | 9.7 | 0.00 | 0.00 | 0.00 | 79 | 1029.2 |
| 20260507153614 | 13 | 342 | 3.2 | 9.7 | 0.00 | 0.00 | 0.00 | 80 | 1029.2 |
| 20260507153349 | 13 | 342 | 3.2 | 9.7 | 0.00 | 0.00 | 0.00 | 80 | 1029.2 |
| 20260507152845 | 13 | 347 | 4.8 | 11.3 | 0.00 | 0.00 | 0.00 | 80 | 1029.2 |
| 20260507152627 | 13 | 9 | 1.6 | 6.4 | 0.00 | 0.00 | 0.00 | 79 | 1029.3 |
| 20260507152344 | 13 | 355 | 3.2 | 11.3 | 0.00 | 0.00 | 0.00 | 79 | 1029.3 |
| 20260507151844 | 13 | 9 | 1.6 | 6.4 | 0.00 | 0.00 | 0.00 | 79 | 1029.3 |
| 20260507151346 | 13 | 40 | 1.6 | 6.4 | 0.00 | 0.00 | 0.00 | 80 | 1029.3 |
| 20260507150844 | 13 | 69 | 1.6 | 6.4 | 0.00 | 0.00 | 0.00 | 81 | 1029.3 |
| 20260507150344 | 12 | 43 | 1.6 | 6.4 | 0.00 | 0.00 | 0.00 | 82 | 1029.3 |
| 20260507145846 | 12 | 311 | 1.6 | 6.4 | 0.00 | 0.00 | 0.00 | 82 | 1029.3 |
| 20260507145340 | 12 | 31 | 1.6 | 9.7 | 0.00 | 0.00 | 0.00 | 82 | 1029.3 |
| 20260507144840 | 12 | 271 | 3.2 | 9.7 | 0.00 | 0.00 | 0.00 | 82 | 1029.1 |
| 20260507144342 | 12 | 340 | 3.2 | 8.0 | 0.00 | 0.00 | 0.00 | 82 | 1029.2 |
| 20260507143840 | 12 | 32 | 3.2 | 8.0 | 0.00 | 0.00 | 0.00 | 81 | 1029.1 |
| 20260507143340 | 12 | 46 | 1.6 | 6.4 | 0.00 | 0.00 | 0.00 | 81 | 1029.1 |
| 20260507142842 | 12 | 40 | 0.0 | 6.4 | 0.00 | 0.00 | 0.00 | 82 | 1029.0 |
| 20260507142336 | 12 | 338 | 1.6 | 4.8 | 0.00 | 0.00 | 0.00 | 82 | 1029.1 |
| 20260507141837 | 12 | 0 | 1.6 | 4.8 | 0.00 | 0.00 | 0.00 | 82 | 1029.0 |
| 20260507141336 | 12 | 0 | 1.6 | 4.8 | 0.00 | 0.00 | 0.00 | 83 | 1028.8 |
| 20260507140836 | 12 | 342 | 1.6 | 4.8 | 0.00 | 0.00 | 0.00 | 83 | 1028.9 |
| 20260507140336 | 12 | 339 | 1.6 | 4.8 | 0.00 | 0.00 | 0.00 | 83 | 1028.7 |
| 20260507135838 | 12 | 17 | 1.6 | 4.8 | 0.00 | 0.00 | 0.00 | 83 | 1028.8 |
| 20260507135336 | 12 | 0 | 0.0 | 4.8 | 0.00 | 0.00 | 0.00 | 83 | 1028.8 |
| 20260507134837 | 12 | 328 | 0.0 | 3.2 | 0.00 | 0.00 | 0.00 | 83 | 1028.7 |
| 20260507134338 | 12 | 331 | 0.0 | 3.2 | 0.00 | 0.00 | 0.00 | 83 | 1028.8 |
| 20260507133836 | 12 | 331 | 0.0 | 3.2 | 0.00 | 0.00 | 0.00 | 84 | 1028.8 |
| 20260507133336 | 12 | 331 | 0.0 | 4.8 | 0.00 | 0.00 | 0.00 | 83 | 1028.7 |
| 20260507132834 | 12 | 319 | 0.0 | 4.8 | 0.00 | 0.00 | 0.00 | 83 | 1028.7 |
| 20260507132335 | 12 | 314 | 0.0 | 3.2 | 0.00 | 0.00 | 0.00 | 83 | 1028.8 |
| 20260507131834 | 12 | 34 | 0.0 | 3.2 | 0.00 | 0.00 | 0.00 | 83 | 1028.7 |
| 20260507131335 | 12 | 34 | 1.6 | 4.8 | 0.00 | 0.00 | 0.00 | 83 | 1028.9 |
| 20260507130833 | 12 | 35 | 1.6 | 4.8 | 0.00 | 0.00 | 0.00 | 83 | 1028.9 |
| 20260507130330 | 12 | 348 | 1.6 | 4.8 | 0.00 | 0.00 | 0.00 | 83 | 1028.9 |
| 20260507125830 | 12 | 14 | 1.6 | 6.4 | 0.00 | 0.00 | 0.00 | 82 | 1029.0 |
| 20260507125330 | 12 | 17 | 1.6 | 6.4 | 0.00 | 0.00 | 0.00 | 81 | 1028.8 |
| 20260507124828 | 12 | 39 | 1.6 | 6.4 | 0.00 | 0.00 | 0.00 | 81 | 1028.9 |
| 20260507124328 | 12 | 66 | 1.6 | 6.4 | 0.00 | 0.00 | 0.00 | 81 | 1028.9 |
| 20260507123825 | 12 | 0 | 1.6 | 6.4 | 0.00 | 0.00 | 0.00 | 81 | 1029.0 |
| 20260507123324 | 12 | 28 | 1.6 | 6.4 | 0.00 | 0.00 | 0.00 | 81 | 1028.8 |
| 20260507122822 | 12 | 74 | 0.0 | 6.4 | 0.00 | 0.00 | 0.00 | 82 | 1029.0 |
| 20260507122322 | 12 | 37 | 1.6 | 6.4 | 0.00 | 0.00 | 0.00 | 81 | 1028.9 |
| 20260507121823 | 12 | 20 | 1.6 | 6.4 | 0.00 | 0.00 | 0.00 | 81 | 1028.9 |
| 20260507121322 | 12 | 17 | 1.6 | 4.8 | 0.00 | 0.00 | 0.00 | 81 | 1029.0 |
| 20260507120818 | 12 | 34 | 1.6 | 6.4 | 0.00 | 0.00 | 0.00 | 82 | 1028.9 |
| 20260507120315 | 12 | 16 | 1.6 | 8.0 | 0.00 | 0.00 | 0.00 | 81 | 1029.0 |
| 20260507115812 | 12 | 0 | 3.2 | 8.0 | 0.00 | 0.00 | 0.00 | 81 | 1029.1 |
| 20260507115310 | 12 | 33 | 3.2 | 6.4 | 0.00 | 0.00 | 0.00 | 82 | 1029.1 |
| 20260507114810 | 12 | 346 | 1.6 | 6.4 | 0.00 | 0.00 | 0.00 | 83 | 1029.2 |
| 20260507114304 | 12 | 27 | 1.6 | 6.4 | 0.00 | 0.00 | 0.00 | 85 | 1029.1 |
| 20260507113804 | 12 | 61 | 0.0 | 4.8 | 0.00 | 0.00 | 0.00 | 86 | 1029.3 |
| 20260507113304 | 12 | 341 | 1.6 | 4.8 | 0.00 | 0.00 | 0.00 | 87 | 1029.2 |
| 20260507112804 | 12 | 347 | 1.6 | 4.8 | 0.00 | 0.00 | 0.00 | 87 | 1029.4 |
| 20260507112307 | 12 | 277 | 1.6 | 4.8 | 0.00 | 0.00 | 0.00 | 87 | 1029.3 |
| 20260507111805 | 12 | 279 | 1.6 | 4.8 | 0.00 | 0.00 | 0.00 | 87 | 1029.4 |
| 20260507111259 | 12 | 288 | 0.0 | 4.8 | 0.00 | 0.00 | 0.00 | 87 | 1029.3 |
| 20260507110758 | 12 | 293 | 0.0 | 3.2 | 0.00 | 0.00 | 0.00 | 87 | 1029.5 |
| 20260507110259 | 12 | 293 | 1.6 | 3.2 | 0.00 | 0.00 | 0.00 | 87 | 1029.4 |
| 20260507105802 | 12 | 301 | 1.6 | 4.8 | 0.00 | 0.00 | 0.00 | 87 | 1029.4 |
| 20260507105258 | 12 | 300 | 1.6 | 6.4 | 0.00 | 0.00 | 0.00 | 87 | 1029.4 |
| 20260507104757 | 12 | 299 | 1.6 | 6.4 | 0.00 | 0.00 | 0.00 | 87 | 1029.5 |
| 20260507104252 | 12 | 303 | 0.0 | 4.8 | 0.00 | 0.00 | 0.00 | 87 | 1029.5 |
| 20260507103752 | 12 | 355 | 1.6 | 4.8 | 0.00 | 0.00 | 0.00 | 87 | 1029.6 |
| 20260507103252 | 12 | 284 | 1.6 | 4.8 | 0.00 | 0.00 | 0.00 | 87 | 1029.7 |
| 20260507102752 | 12 | 296 | 1.6 | 4.8 | 0.00 | 0.00 | 0.00 | 87 | 1029.6 |
| 20260507102252 | 12 | 289 | 1.6 | 6.4 | 0.00 | 0.00 | 0.00 | 87 | 1029.6 |
| 20260507101753 | 12 | 0 | 1.6 | 6.4 | 0.00 | 0.00 | 0.00 | 87 | 1029.7 |
| 20260507101250 | 12 | 260 | 1.6 | 4.8 | 0.00 | 0.00 | 0.00 | 86 | 1029.8 |
| 20260507100748 | 12 | 335 | 1.6 | 4.8 | 0.00 | 0.00 | 0.00 | 86 | 1029.8 |
| 20260507100249 | 12 | 286 | 1.6 | 6.4 | 0.00 | 0.00 | 0.00 | 86 | 1029.8 |
| 20260507095748 | 12 | 331 | 1.6 | 6.4 | 0.00 | 0.00 | 0.00 | 87 | 1029.9 |
| 20260507095246 | 12 | 0 | 1.6 | 4.8 | 0.00 | 0.00 | 0.00 | 87 | 1029.9 |
| 20260507094746 | 12 | 286 | 1.6 | 4.8 | 0.00 | 0.00 | 0.00 | 87 | 1029.8 |
| 20260507094244 | 12 | 277 | 1.6 | 4.8 | 0.00 | 0.00 | 0.00 | 87 | 1030.0 |
| 20260507093744 | 12 | 315 | 1.6 | 4.8 | 0.00 | 0.00 | 0.00 | 87 | 1029.9 |
| 20260507093245 | 12 | 270 | 1.6 | 6.4 | 0.00 | 0.00 | 0.00 | 87 | 1029.9 |
| 20260507092742 | 12 | 271 | 1.6 | 6.4 | 0.00 | 0.00 | 0.00 | 86 | 1029.9 |
| 20260507092240 | 12 | 259 | 1.6 | 6.4 | 0.00 | 0.00 | 0.00 | 86 | 1029.9 |
| 20260507091741 | 12 | 286 | 1.6 | 4.8 | 0.00 | 0.00 | 0.00 | 86 | 1030.0 |
| 20260507091235 | 12 | 275 | 1.6 | 6.4 | 0.00 | 0.00 | 0.00 | 86 | 1030.0 |
| 20260507090734 | 12 | 273 | 1.6 | 6.4 | 0.00 | 0.00 | 0.00 | 86 | 1030.1 |
| 20260507090233 | 12 | 281 | 1.6 | 6.4 | 0.00 | 0.00 | 0.00 | 86 | 1030.0 |
| 20260507085734 | 12 | 265 | 1.6 | 6.4 | 0.00 | 0.00 | 0.00 | 86 | 1030.1 |
| 20260507085234 | 12 | 299 | 1.6 | 3.2 | 0.00 | 0.00 | 0.00 | 86 | 1030.1 |
| 20260507084734 | 12 | 318 | 1.6 | 4.8 | 0.00 | 0.00 | 0.00 | 86 | 1030.0 |
| 20260507084232 | 12 | 251 | 1.6 | 4.8 | 0.00 | 0.00 | 0.00 | 86 | 1030.1 |
| 20260507083732 | 12 | 271 | 1.6 | 6.4 | 0.00 | 0.00 | 0.00 | 86 | 1030.2 |
| 20260507083233 | 12 | 300 | 1.6 | 6.4 | 0.00 | 0.00 | 0.00 | 86 | 1030.1 |
| 20260507082729 | 12 | 10 | 0.0 | 4.8 | 0.00 | 0.00 | 0.00 | 86 | 1030.1 |
| 20260507082228 | 12 | 194 | 0.0 | 1.6 | 0.00 | 0.00 | 0.00 | 86 | 1030.0 |
| 20260507081728 | 12 | 194 | 0.0 | 1.6 | 0.00 | 0.00 | 0.00 | 86 | 1030.1 |
| 20260507081224 | 12 | 193 | 0.0 | 1.6 | 0.00 | 0.00 | 0.00 | 86 | 1030.1 |
| 20260507080724 | 12 | 194 | 0.0 | 1.6 | 0.00 | 0.00 | 0.00 | 86 | 1030.1 |
| 20260507080225 | 12 | 194 | 0.0 | 0.0 | 0.00 | 0.00 | 0.00 | 86 | 1030.2 |
| 20260507075724 | 12 | 194 | 0.0 | 3.2 | 0.00 | 0.00 | 0.00 | 86 | 1030.2 |
| 20260507075222 | 12 | 193 | 0.0 | 3.2 | 0.00 | 0.00 | 0.00 | 86 | 1030.2 |
| 20260507074722 | 12 | 191 | 0.0 | 3.2 | 0.00 | 0.00 | 0.00 | 86 | 1030.2 |
| 20260507074216 | 12 | 300 | 0.0 | 1.6 | 0.00 | 0.00 | 0.00 | 86 | 1030.2 |
| 20260507073716 | 12 | 300 | 0.0 | 3.2 | 0.00 | 0.00 | 0.00 | 86 | 1030.3 |
| 20260507073213 | 12 | 301 | 0.0 | 3.2 | 0.00 | 0.00 | 0.00 | 86 | 1030.2 |
| 20260507072710 | 12 | 300 | 0.0 | 3.2 | 0.00 | 0.00 | 0.00 | 85 | 1030.2 |
| 20260507072210 | 12 | 300 | 1.6 | 4.8 | 0.00 | 0.00 | 0.00 | 85 | 1030.1 |
| 20260507071709 | 12 | 303 | 1.6 | 4.8 | 0.00 | 0.00 | 0.00 | 85 | 1030.1 |
| 20260507071206 | 12 | 281 | 1.6 | 4.8 | 0.00 | 0.00 | 0.00 | 85 | 1030.1 |
| 20260507070703 | 12 | 318 | 0.0 | 3.2 | 0.00 | 0.00 | 0.00 | 85 | 1030.1 |
| 20260507070205 | 12 | 336 | 0.0 | 3.2 | 0.00 | 0.00 | 0.00 | 85 | 1030.1 |
| 20260507065704 | 12 | 327 | 0.0 | 3.2 | 0.00 | 0.00 | 0.00 | 85 | 1030.1 |
| 20260507065204 | 12 | 315 | 1.6 | 3.2 | 0.00 | 0.00 | 0.00 | 85 | 1030.0 |
| 20260507064700 | 12 | 308 | 1.6 | 3.2 | 0.00 | 0.00 | 0.00 | 85 | 1030.1 |
| 20260507064200 | 12 | 327 | 0.0 | 4.8 | 0.00 | 0.00 | 0.00 | 85 | 1030.1 |
| 20260507063658 | 12 | 327 | 0.0 | 4.8 | 0.00 | 0.00 | 0.00 | 85 | 1030.1 |
| 20260507063200 | 12 | 296 | 0.0 | 1.6 | 0.00 | 0.00 | 0.00 | 85 | 1030.0 |
| 20260507062658 | 12 | 296 | 0.0 | 3.2 | 0.00 | 0.00 | 0.00 | 85 | 1030.0 |
| 20260507062157 | 12 | 296 | 0.0 | 4.8 | 0.00 | 0.00 | 0.00 | 85 | 1030.1 |
| 20260507061652 | 12 | 309 | 0.0 | 4.8 | 0.00 | 0.00 | 0.00 | 85 | 1030.1 |
| 20260507061151 | 12 | 239 | 0.0 | 4.8 | 0.00 | 0.00 | 0.00 | 85 | 1030.1 |
| 20260507060647 | 12 | 236 | 1.6 | 6.4 | 0.00 | 0.00 | 0.00 | 85 | 1030.1 |
| 20260507060145 | 12 | 228 | 1.6 | 6.4 | 0.00 | 0.00 | 0.00 | 85 | 1030.0 |
| 20260507055647 | 12 | 276 | 1.6 | 4.8 | 0.00 | 0.00 | 0.00 | 85 | 1030.1 |
| 20260507055140 | 12 | 247 | 1.6 | 6.4 | 0.00 | 0.00 | 0.00 | 85 | 1030.1 |
| 20260507054640 | 12 | 246 | 3.2 | 9.7 | 0.00 | 0.00 | 0.00 | 84 | 1030.0 |
| 20260507054140 | 12 | 242 | 3.2 | 9.7 | 0.00 | 0.00 | 0.00 | 84 | 1030.1 |
| 20260507053639 | 12 | 269 | 3.2 | 9.7 | 0.00 | 0.00 | 0.00 | 84 | 1030.1 |
| 20260507053139 | 12 | 258 | 3.2 | 9.7 | 0.00 | 0.00 | 0.00 | 84 | 1030.2 |
| 20260507052641 | 12 | 244 | 3.2 | 9.7 | 0.00 | 0.00 | 0.00 | 84 | 1030.2 |
| 20260507052135 | 12 | 280 | 3.2 | 12.9 | 0.00 | 0.00 | 0.00 | 84 | 1030.2 |
| 20260507051635 | 12 | 253 | 3.2 | 12.9 | 0.00 | 0.00 | 0.00 | 84 | 1030.1 |
| 20260507051134 | 12 | 255 | 3.2 | 9.7 | 0.00 | 0.00 | 0.00 | 84 | 1030.2 |
| 20260507050634 | 12 | 279 | 4.8 | 12.9 | 0.00 | 0.00 | 0.00 | 84 | 1030.1 |
| 20260507050134 | 12 | 253 | 4.8 | 12.9 | 0.00 | 0.00 | 0.00 | 84 | 1030.0 |
| 20260507045635 | 12 | 292 | 3.2 | 12.9 | 0.00 | 0.00 | 0.00 | 84 | 1030.0 |
| 20260507045130 | 12 | 283 | 3.2 | 11.3 | 0.00 | 0.00 | 0.00 | 84 | 1030.0 |
| 20260507044629 | 12 | 267 | 3.2 | 11.3 | 0.00 | 0.00 | 0.00 | 84 | 1030.1 |
| 20260507044131 | 12 | 242 | 3.2 | 6.4 | 0.00 | 0.00 | 0.00 | 83 | 1030.0 |
| 20260507043630 | 12 | 277 | 3.2 | 9.7 | 0.00 | 0.00 | 0.00 | 83 | 1030.1 |
| 20260507043128 | 12 | 262 | 1.6 | 9.7 | 0.00 | 0.00 | 0.00 | 83 | 1029.9 |
| 20260507042629 | 13 | 277 | 0.0 | 3.2 | 0.00 | 0.00 | 0.00 | 83 | 1030.0 |
| 20260507042126 | 13 | 277 | 0.0 | 4.8 | 0.00 | 0.00 | 0.00 | 83 | 1029.9 |
| 20260507041623 | 13 | 276 | 1.6 | 6.4 | 0.00 | 0.00 | 0.00 | 83 | 1029.9 |
| 20260507041125 | 13 | 277 | 1.6 | 12.9 | 0.00 | 0.00 | 0.00 | 83 | 1029.8 |
| 20260507040624 | 13 | 277 | 3.2 | 12.9 | 0.00 | 0.00 | 0.00 | 82 | 1029.7 |
| 20260507040122 | 13 | 220 | 3.2 | 6.4 | 0.00 | 0.00 | 0.00 | 82 | 1029.6 |
| 20260507035623 | 13 | 267 | 3.2 | 11.3 | 0.00 | 0.00 | 0.00 | 82 | 1029.4 |
| 20260507035116 | 13 | 317 | 3.2 | 11.3 | 0.00 | 0.00 | 0.00 | 82 | 1029.4 |
| 20260507034615 | 13 | 290 | 4.8 | 11.3 | 0.00 | 0.00 | 0.00 | 82 | 1029.3 |
| 20260507034115 | 13 | 277 | 4.8 | 12.9 | 0.00 | 0.00 | 0.00 | 82 | 1029.3 |
| 20260507033615 | 13 | 249 | 4.8 | 12.9 | 0.00 | 0.00 | 0.00 | 81 | 1029.2 |
| 20260507033115 | 14 | 293 | 4.8 | 12.9 | 0.00 | 0.00 | 0.00 | 81 | 1029.1 |
| 20260507032617 | 14 | 267 | 4.8 | 12.9 | 0.00 | 0.00 | 0.00 | 81 | 1029.1 |
| 20260507032110 | 14 | 265 | 6.4 | 12.9 | 0.00 | 0.00 | 0.00 | 80 | 1029.0 |
| 20260507031610 | 15 | 313 | 6.4 | 12.9 | 0.00 | 0.00 | 0.00 | 79 | 1029.0 |
| 20260507031110 | 15 | 267 | 4.8 | 12.9 | 0.00 | 0.00 | 0.00 | 79 | 1028.9 |
| 20260507030609 | 15 | 25 | 4.8 | 12.9 | 0.00 | 0.00 | 0.00 | 78 | 1028.9 |
| 20260507030109 | 15 | 350 | 4.8 | 9.7 | 0.00 | 0.00 | 0.00 | 78 | 1028.8 |
| 20260507025610 | 16 | 282 | 3.2 | 8.0 | 0.00 | 0.00 | 0.00 | 77 | 1028.8 |
| 20260507025110 | 16 | 302 | 3.2 | 11.3 | 0.00 | 0.00 | 0.00 | 77 | 1028.7 |
| 20260507024610 | 16 | 276 | 3.2 | 11.3 | 0.00 | 0.00 | 0.00 | 76 | 1028.8 |
| 20260507024111 | 16 | 273 | 4.8 | 9.7 | 0.00 | 0.00 | 0.00 | 76 | 1028.8 |
| 20260507023605 | 16 | 279 | 4.8 | 12.9 | 0.00 | 0.00 | 0.00 | 75 | 1028.7 |
| 20260507023106 | 16 | 287 | 6.4 | 12.9 | 0.00 | 0.00 | 0.00 | 75 | 1028.7 |
| 20260507022605 | 17 | 259 | 4.8 | 12.9 | 0.00 | 0.00 | 0.00 | 74 | 1028.7 |
| 20260507022107 | 17 | 323 | 4.8 | 14.5 | 0.00 | 0.00 | 0.00 | 74 | 1028.7 |
| 20260507021606 | 17 | 275 | 4.8 | 14.5 | 0.00 | 0.00 | 0.00 | 74 | 1028.6 |
| 20260507021105 | 17 | 274 | 6.4 | 16.1 | 0.00 | 0.00 | 0.00 | 73 | 1028.7 |
| 20260507020607 | 17 | 271 | 6.4 | 17.7 | 0.00 | 0.00 | 0.00 | 73 | 1028.8 |
| 20260507015602 | 18 | 355 | 6.4 | 16.1 | 0.00 | 0.00 | 0.00 | 72 | 1028.8 |
| 20260507015104 | 18 | 281 | 8.0 | 17.7 | 0.00 | 0.00 | 0.00 | 72 | 1028.8 |
| 20260507014602 | 18 | 301 | 6.4 | 17.7 | 0.00 | 0.00 | 0.00 | 71 | 1028.9 |
| 20260507014101 | 18 | 313 | 4.8 | 14.5 | 0.00 | 0.00 | 0.00 | 71 | 1028.7 |
| 20260507013602 | 18 | 255 | 4.8 | 14.5 | 0.00 | 0.00 | 0.00 | 71 | 1028.6 |
| 20260507013058 | 18 | 256 | 4.8 | 12.9 | 0.00 | 0.00 | 0.00 | 71 | 1028.7 |
| 20260507012559 | 18 | 258 | 4.8 | 12.9 | 0.00 | 0.00 | 0.00 | 71 | 1028.6 |
| 20260507012058 | 19 | 281 | 6.4 | 14.5 | 0.00 | 0.00 | 0.00 | 70 | 1028.6 |
| 20260507011558 | 19 | 242 | 6.4 | 14.5 | 0.00 | 0.00 | 0.00 | 69 | 1028.6 |
| 20260507011057 | 19 | 256 | 6.4 | 12.9 | 0.00 | 0.00 | 0.00 | 69 | 1028.6 |
| 20260507010559 | 19 | 300 | 6.4 | 16.1 | 0.00 | 0.00 | 0.00 | 70 | 1028.6 |
| 20260507010052 | 20 | 288 | 6.4 | 16.1 | 0.00 | 0.00 | 0.00 | 69 | 1028.7 |
| 20260507005553 | 20 | 292 | 6.4 | 14.5 | 0.00 | 0.00 | 0.00 | 69 | 1028.8 |
| 20260507005052 | 20 | 283 | 6.4 | 12.9 | 0.00 | 0.00 | 0.00 | 69 | 1028.6 |
| 20260507004552 | 20 | 280 | 6.4 | 16.1 | 0.00 | 0.00 | 0.00 | 68 | 1028.7 |
| 20260507004045 | 20 | 284 | 6.4 | 16.1 | 0.00 | 0.00 | 0.00 | 68 | 1028.8 |
| 20260507003545 | 20 | 306 | 6.4 | 20.9 | 0.00 | 0.00 | 0.00 | 68 | 1028.7 |
| 20260507003044 | 20 | 302 | 8.0 | 20.9 | 0.00 | 0.00 | 0.00 | 68 | 1028.6 |
| 20260507002544 | 20 | 338 | 8.0 | 20.9 | 0.00 | 0.00 | 0.00 | 68 | 1028.6 |
| 20260507002043 | 20 | 304 | 8.0 | 19.3 | 0.00 | 0.00 | 0.00 | 68 | 1028.6 |
| 20260507001544 | 20 | 316 | 8.0 | 19.3 | 0.00 | 0.00 | 0.00 | 67 | 1028.6 |
| 20260507001038 | 20 | 344 | 8.0 | 17.7 | 0.00 | 0.00 | 0.00 | 68 | 1028.5 |
| 20260507000537 | 21 | 355 | 8.0 | 17.7 | 0.00 | 0.00 | 0.00 | 68 | 1028.4 |
| 20260507000037 | 21 | 323 | 8.0 | 17.7 | 0.00 | 0.00 | 0.00 | 68 | 1028.4 |
| 20260506235537 | 21 | 291 | 8.0 | 17.7 | 0.00 | 0.00 | 0.00 | 67 | 1028.3 |
| 20260506235038 | 21 | 261 | 8.0 | 20.9 | 0.00 | 0.00 | 0.00 | 67 | 1028.3 |
| 20260506234537 | 21 | 5 | 8.0 | 16.1 | 0.00 | 0.00 | 0.00 | 67 | 1028.4 |
| 20260506234032 | 21 | 298 | 8.0 | 17.7 | 0.00 | 0.00 | 0.00 | 66 | 1028.4 |
| 20260506233531 | 21 | 0 | 8.0 | 17.7 | 0.00 | 0.00 | 0.00 | 67 | 1028.3 |
| 20260506233032 | 21 | 290 | 6.4 | 16.1 | 0.00 | 0.00 | 0.00 | 66 | 1028.2 |
| 20260506232531 | 22 | 294 | 6.4 | 19.3 | 0.00 | 0.00 | 0.00 | 67 | 1028.1 |
| 20260506232031 | 22 | 236 | 6.4 | 19.3 | 0.00 | 0.00 | 0.00 | 67 | 1028.2 |
| 20260506231532 | 22 | 261 | 8.0 | 14.5 | 0.00 | 0.00 | 0.00 | 67 | 1028.3 |
| 20260506231026 | 22 | 261 | 8.0 | 14.5 | 0.00 | 0.00 | 0.00 | 67 | 1028.3 |
| 20260506230525 | 22 | 251 | 6.4 | 14.5 | 0.00 | 0.00 | 0.00 | 67 | 1028.3 |
| 20260506230025 | 22 | 282 | 4.8 | 14.5 | 0.00 | 0.00 | 0.00 | 67 | 1028.3 |
| 20260506225525 | 22 | 283 | 4.8 | 14.5 | 0.00 | 0.00 | 0.00 | 66 | 1028.4 |
| 20260506225025 | 22 | 321 | 4.8 | 14.5 | 0.00 | 0.00 | 0.00 | 65 | 1028.5 |
| 20260506224525 | 22 | 265 | 4.8 | 12.9 | 0.00 | 0.00 | 0.00 | 65 | 1028.5 |
| 20260506224019 | 22 | 273 | 4.8 | 14.5 | 0.00 | 0.00 | 0.00 | 64 | 1028.6 |
| 20260506223519 | 23 | 267 | 3.2 | 14.5 | 0.00 | 0.00 | 0.00 | 62 | 1028.6 |
| 20260506223019 | 22 | 175 | 3.2 | 6.4 | 0.00 | 0.00 | 0.00 | 62 | 1028.6 |
| 20260506222519 | 22 | 251 | 3.2 | 11.3 | 0.00 | 0.00 | 0.00 | 62 | 1028.7 |
| 20260506222019 | 22 | 36 | 3.2 | 11.3 | 0.00 | 0.00 | 0.00 | 65 | 1028.6 |
| 20260506221520 | 22 | 299 | 3.2 | 9.7 | 0.00 | 0.00 | 0.00 | 66 | 1028.7 |
| 20260506221016 | 22 | 216 | 4.8 | 11.3 | 0.00 | 0.00 | 0.00 | 65 | 1028.8 |
| 20260506220515 | 22 | 276 | 3.2 | 11.3 | 0.00 | 0.00 | 0.00 | 66 | 1028.8 |
| 20260506220016 | 22 | 221 | 3.2 | 9.7 | 0.00 | 0.00 | 0.00 | 67 | 1028.8 |
| 20260506215515 | 21 | 157 | 3.2 | 8.0 | 0.00 | 0.00 | 0.00 | 65 | 1028.8 |
| 20260506215013 | 21 | 165 | 3.2 | 11.3 | 0.00 | 0.00 | 0.00 | 67 | 1028.8 |
| 20260506214514 | 21 | 261 | 4.8 | 11.3 | 0.00 | 0.00 | 0.00 | 67 | 1028.9 |
| 20260506214011 | 21 | 219 | 4.8 | 11.3 | 0.00 | 0.00 | 0.00 | 69 | 1028.8 |
| 20260506213509 | 21 | 259 | 3.2 | 9.7 | 0.00 | 0.00 | 0.00 | 69 | 1028.8 |
| 20260506213011 | 21 | 237 | 1.6 | 8.0 | 0.00 | 0.00 | 0.00 | 71 | 1028.7 |
| 20260506212509 | 21 | 319 | 3.2 | 9.7 | 0.00 | 0.00 | 0.00 | 69 | 1028.7 |
| 20260506212007 | 21 | 344 | 3.2 | 11.3 | 0.00 | 0.00 | 0.00 | 69 | 1028.9 |
| 20260506211506 | 21 | 210 | 3.2 | 11.3 | 0.00 | 0.00 | 0.00 | 72 | 1028.8 |
| 20260506211005 | 20 | 176 | 3.2 | 11.3 | 0.00 | 0.00 | 0.00 | 74 | 1028.8 |
| 20260506210505 | 20 | 202 | 1.6 | 9.7 | 0.00 | 0.00 | 0.00 | 76 | 1028.9 |
| 20260506210006 | 20 | 323 | 1.6 | 8.0 | 0.00 | 0.00 | 0.00 | 73 | 1028.9 |
| 20260506205504 | 20 | 315 | 3.2 | 8.0 | 0.00 | 0.00 | 0.00 | 74 | 1029.1 |
| 20260506205001 | 20 | 232 | 1.6 | 8.0 | 0.00 | 0.00 | 0.00 | 74 | 1029.1 |
| 20260506204502 | 19 | 83 | 1.6 | 6.4 | 0.00 | 0.00 | 0.00 | 76 | 1029.1 |
| 20260506203957 | 19 | 245 | 3.2 | 9.7 | 0.00 | 0.00 | 0.00 | 75 | 1029.2 |
| 20260506203457 | 19 | 234 | 4.8 | 11.3 | 0.00 | 0.00 | 0.00 | 74 | 1029.2 |
| 20260506202955 | 20 | 244 | 4.8 | 11.3 | 0.00 | 0.00 | 0.00 | 73 | 1029.3 |
| 20260506202456 | 20 | 279 | 3.2 | 9.7 | 0.00 | 0.00 | 0.00 | 73 | 1029.3 |
| 20260506201955 | 20 | 215 | 1.6 | 9.7 | 0.00 | 0.00 | 0.00 | 71 | 1029.2 |
| 20260506201456 | 21 | 152 | 3.2 | 9.7 | 0.00 | 0.00 | 0.00 | 73 | 1029.2 |
| 20260506200950 | 20 | 175 | 4.8 | 12.9 | 0.00 | 0.00 | 0.00 | 74 | 1029.2 |
| 20260506200449 | 20 | 175 | 4.8 | 12.9 | 0.00 | 0.00 | 0.00 | 73 | 1029.4 |
| 20260506195949 | 20 | 190 | 3.2 | 12.9 | 0.00 | 0.00 | 0.00 | 73 | 1029.4 |
| 20260506195449 | 21 | 227 | 4.8 | 12.9 | 0.00 | 0.00 | 0.00 | 72 | 1029.3 |
| 20260506194949 | 21 | 118 | 4.8 | 12.9 | 0.00 | 0.00 | 0.00 | 73 | 1029.4 |
| 20260506194449 | 21 | 211 | 4.8 | 19.3 | 0.00 | 0.00 | 0.00 | 74 | 1029.5 |
| 20260506193945 | 20 | 186 | 4.8 | 19.3 | 0.00 | 0.00 | 0.00 | 75 | 1029.4 |
| 20260506193445 | 20 | 148 | 4.8 | 16.1 | 0.00 | 0.00 | 0.00 | 78 | 1029.4 |
| 20260506192945 | 19 | 117 | 4.8 | 16.1 | 0.00 | 0.00 | 0.00 | 76 | 1029.4 |
| 20260506192445 | 19 | 171 | 4.8 | 14.5 | 0.00 | 0.00 | 0.00 | 77 | 1029.4 |
| 20260506191942 | 19 | 161 | 4.8 | 12.9 | 0.00 | 0.00 | 0.00 | 78 | 1029.3 |
| 20260506191444 | 18 | 156 | 4.8 | 11.3 | 0.00 | 0.00 | 0.00 | 82 | 1029.4 |
| 20260506190938 | 18 | 145 | 4.8 | 11.3 | 0.00 | 0.00 | 0.00 | 82 | 1029.6 |
| 20260506190437 | 17 | 156 | 3.2 | 9.7 | 0.00 | 0.00 | 0.00 | 82 | 1029.7 |